TimeMDT,TemperatureF,Dew PointF,Humidity,Sea Level PressureIn,VisibilityMPH,Wind Direction,Wind SpeedMPH,Gust SpeedMPH,PrecipitationIn,Events,Conditions,WindDirDegrees,DateUTC
12:14 AM,46.4,39.2,76,30.55,10.0,SSE,8.1,-,N/A,,Overcast,160,2013-09-11 06:14:00
12:34 AM,46.4,37.4,71,30.56,10.0,SSE,11.5,-,N/A,,Overcast,150,2013-09-11 06:34:00
12:54 AM,46.4,39.2,76,30.56,10.0,South,9.2,-,N/A,,Overcast,180,2013-09-11 06:54:00
1:14 AM,46.4,39.2,76,30.56,10.0,SSE,8.1,-,N/A,,Overcast,150,2013-09-11 07:14:00
1:34 AM,46.4,39.2,76,30.56,10.0,SSE,9.2,-,N/A,,Light Drizzle,160,2013-09-11 07:34:00
1:54 AM,46.4,39.2,76,30.56,10.0,South,10.4,-,N/A,,Overcast,180,2013-09-11 07:54:00
2:14 AM,46.4,41.0,81,30.56,7.0,South,13.8,-,N/A,,Overcast,180,2013-09-11 08:14:00
2:34 AM,46.4,39.2,76,30.55,10.0,SSE,10.4,-,0.01,,Overcast,150,2013-09-11 08:34:00
2:54 AM,46.4,41.0,81,30.55,10.0,SSE,11.5,-,0.01,Rain,Light Rain,160,2013-09-11 08:54:00
3:14 AM,46.4,41.0,81,30.54,10.0,SE,5.8,-,N/A,,Overcast,130,2013-09-11 09:14:00
3:34 AM,46.4,41.0,81,30.54,10.0,SE,6.9,-,N/A,,Scattered Clouds,140,2013-09-11 09:34:00
3:54 AM,46.4,39.2,76,30.54,10.0,South,12.7,-,N/A,,Mostly Cloudy,170,2013-09-11 09:54:00
4:14 AM,46.4,39.2,76,30.55,10.0,SW,4.6,-,N/A,,Overcast,230,2013-09-11 10:14:00
4:34 AM,46.4,41.0,81,30.55,10.0,South,11.5,-,N/A,,Drizzle,180,2013-09-11 10:34:00
4:54 AM,46.4,41.0,81,30.55,10.0,South,6.9,-,N/A,,Overcast,170,2013-09-11 10:54:00
5:14 AM,46.4,41.0,81,30.55,4.0,SW,4.6,-,N/A,,Light Drizzle,220,2013-09-11 11:14:00
5:34 AM,46.4,41.0,81,30.55,10.0,Calm,Calm,-,N/A,,Overcast,0,2013-09-11 11:34:00
5:54 AM,46.4,41.0,81,30.55,5.0,East,3.5,-,N/A,,Light Drizzle,80,2013-09-11 11:54:00
6:14 AM,46.4,41.0,81,30.56,4.0,SE,4.6,-,N/A,,Haze,130,2013-09-11 12:14:00
6:34 AM,46.4,41.0,81,30.56,5.0,SSE,6.9,-,N/A,,Drizzle,150,2013-09-11 12:34:00
6:54 AM,46.4,41.0,81,30.56,10.0,South,6.9,-,N/A,,Overcast,170,2013-09-11 12:54:00
7:14 AM,46.4,41.0,81,30.56,10.0,SE,9.2,-,N/A,Rain,Light Rain,140,2013-09-11 13:14:00
7:34 AM,46.4,41.0,81,30.57,7.0,SSE,6.9,-,0.01,Rain,Rain,150,2013-09-11 13:34:00
7:54 AM,46.4,41.0,81,30.57,0.5,SSE,5.8,-,0.02,Rain,Rain,150,2013-09-11 13:54:00
8:14 AM,46.4,41.0,81,30.57,1.0,SSE,5.8,-,N/A,Rain,Light Rain,150,2013-09-11 14:14:00
8:34 AM,46.4,42.8,87,30.56,2.0,SSE,6.9,-,0.01,,Haze,150,2013-09-11 14:34:00
8:54 AM,50.0,44.6,82,30.58,10.0,ENE,5.8,-,0.01,,Overcast,60,2013-09-11 14:54:00
9:14 AM,46.4,42.8,87,30.57,5.0,Calm,Calm,-,N/A,,Haze,0,2013-09-11 15:14:00
9:34 AM,48.2,42.8,82,30.59,10.0,South,4.6,-,N/A,,Overcast,180,2013-09-11 15:34:00
9:54 AM,51.8,44.6,76,30.59,10.0,North,6.9,-,N/A,,Overcast,350,2013-09-11 15:54:00
10:14 AM,53.6,46.4,77,30.59,10.0,North,5.8,-,N/A,,Overcast,360,2013-09-11 16:14:00
10:34 AM,53.6,46.4,77,30.59,10.0,ENE,5.8,-,N/A,,Overcast,60,2013-09-11 16:34:00
10:54 AM,53.6,44.6,72,30.59,10.0,South,9.2,-,N/A,,Overcast,170,2013-09-11 16:54:00
11:14 AM,59.0,42.8,55,30.59,10.0,South,9.2,-,N/A,,Overcast,170,2013-09-11 17:14:00
11:34 AM,57.2,42.8,59,30.59,10.0,WSW,3.5,-,N/A,,Overcast,240,2013-09-11 17:34:00
11:54 AM,57.2,44.6,63,30.59,10.0,SSW,5.8,-,N/A,,Overcast,210,2013-09-11 17:54:00
12:14 PM,59.0,42.8,55,30.59,10.0,East,6.9,-,N/A,,Overcast,80,2013-09-11 18:14:00
12:34 PM,59.0,42.8,55,30.59,10.0,SE,5.8,-,N/A,,Overcast,140,2013-09-11 18:34:00
12:54 PM,59.0,42.8,55,30.59,10.0,South,10.4,-,N/A,,Overcast,170,2013-09-11 18:54:00
1:14 PM,55.4,41.0,58,30.59,10.0,SE,5.8,-,N/A,,Overcast,130,2013-09-11 19:14:00
1:34 PM,59.0,42.8,55,30.59,10.0,SSE,8.1,-,N/A,,Overcast,150,2013-09-11 19:34:00
1:54 PM,55.4,42.8,63,30.58,10.0,SSE,15.0,-,N/A,,Overcast,160,2013-09-11 19:54:00
2:14 PM,55.4,42.8,63,30.57,10.0,SSE,13.8,-,N/A,,Overcast,160,2013-09-11 20:14:00
2:34 PM,59.0,42.8,55,30.57,10.0,SE,9.2,-,N/A,Thunderstorm,Overcast,140,2013-09-11 20:34:00
2:54 PM,59.0,41.0,51,30.57,10.0,SE,8.1,-,N/A,,Overcast,140,2013-09-11 20:54:00
3:14 PM,59.0,42.8,55,30.57,10.0,SSE,9.2,12.7,N/A,,Mostly Cloudy,150,2013-09-11 21:14:00
3:34 PM,53.6,44.6,72,30.57,7.0,South,20.7,-,N/A,Rain,Light Rain,180,2013-09-11 21:34:00
3:54 PM,53.6,44.6,72,30.56,10.0,SSE,16.1,-,N/A,,Overcast,150,2013-09-11 21:54:00
4:14 PM,57.2,42.8,59,30.56,10.0,SSE,16.1,23.0,N/A,,Mostly Cloudy,160,2013-09-11 22:14:00
4:34 PM,59.0,42.8,55,30.56,10.0,SSE,13.8,-,N/A,,Scattered Clouds,160,2013-09-11 22:34:00
4:54 PM,59.0,41.0,51,30.57,10.0,South,6.9,-,N/A,Thunderstorm,Scattered Clouds,170,2013-09-11 22:54:00
5:14 PM,55.4,39.2,54,30.57,10.0,South,15.0,-,N/A,,Mostly Cloudy,180,2013-09-11 23:14:00
5:34 PM,55.4,41.0,58,30.57,10.0,SSE,13.8,-,N/A,Thunderstorm,Thunderstorm,160,2013-09-11 23:34:00
5:54 PM,55.4,39.2,54,30.58,10.0,South,16.1,-,N/A,Thunderstorm,Thunderstorm,170,2013-09-11 23:54:00
6:14 PM,53.6,39.2,58,30.57,10.0,South,15.0,-,N/A,,Clear,170,2013-09-12 00:14:00
6:34 PM,53.6,42.8,67,30.57,10.0,West,9.2,-,N/A,,Clear,280,2013-09-12 00:34:00
6:54 PM,51.8,44.6,76,30.59,10.0,West,8.1,-,N/A,,Mostly Cloudy,270,2013-09-12 00:54:00
7:14 PM,51.8,44.6,76,30.59,10.0,West,9.2,-,N/A,Thunderstorm,Thunderstorm,270,2013-09-12 01:14:00
7:34 PM,51.8,44.6,76,30.59,10.0,West,5.8,-,N/A,Thunderstorm,Thunderstorm,270,2013-09-12 01:34:00
7:54 PM,51.8,42.8,71,30.59,10.0,South,8.1,-,N/A,,Mostly Cloudy,190,2013-09-12 01:54:00
8:14 PM,50.0,42.8,76,30.60,10.0,West,6.9,-,N/A,,Overcast,260,2013-09-12 02:14:00
8:34 PM,50.0,42.8,76,30.61,7.0,SE,4.6,-,0.09,Rain,Light Rain,140,2013-09-12 02:34:00
8:54 PM,50.0,41.0,71,30.62,10.0,SSE,6.9,-,0.09,,Overcast,150,2013-09-12 02:54:00
9:14 PM,48.2,37.4,66,30.62,10.0,South,11.5,-,N/A,,Overcast,170,2013-09-12 03:14:00
9:34 PM,48.2,37.4,66,30.62,10.0,SSE,9.2,-,N/A,,Overcast,150,2013-09-12 03:34:00
9:54 PM,50.0,39.2,66,30.62,10.0,South,8.1,-,N/A,,Overcast,170,2013-09-12 03:54:00
10:14 PM,46.4,37.4,71,30.62,10.0,SSE,11.5,-,N/A,,Overcast,150,2013-09-12 04:14:00
10:34 PM,48.2,37.4,66,30.62,10.0,South,12.7,-,N/A,,Mostly Cloudy,170,2013-09-12 04:34:00
10:54 PM,48.2,37.4,66,30.61,10.0,South,19.6,-,N/A,,Mostly Cloudy,170,2013-09-12 04:54:00
11:14 PM,48.2,37.4,66,30.61,10.0,South,18.4,-,N/A,,Overcast,170,2013-09-12 05:14:00
11:34 PM,46.4,37.4,71,30.62,10.0,SSE,12.7,-,N/A,Rain,Light Rain,160,2013-09-12 05:34:00
11:54 PM,46.4,37.4,71,30.62,10.0,West,5.8,-,N/A,,Overcast,270,2013-09-12 05:54:00